Time,TemperatureF,DewpointF,PressureIn,WindDirection,WindDirectionDegrees,WindSpeedMPH,WindSpeedGustMPH,Humidity,HourlyPrecipIn,Conditions,Clouds,dailyrainin,SoftwareType,DateUTC
2013-01-18 00:01:00,29.1,28.4,30.23,SW,225,0.0,0.0,97,0.00,,,0.00,WUHU21623XXSP,2013-01-18 08:01:00,
2013-01-18 00:06:00,29.1,28.4,30.23,SW,225,0.0,0.0,97,0.00,,,0.00,WUHU21623XXSP,2013-01-18 08:06:00,
2013-01-18 00:11:00,28.9,28.2,30.23,SW,225,0.0,0.0,97,0.00,,,0.00,WUHU21623XXSP,2013-01-18 08:11:00,
2013-01-18 00:16:00,28.9,28.2,30.23,SW,225,0.0,0.0,97,0.00,,,0.00,WUHU21623XXSP,2013-01-18 08:16:00,
2013-01-18 00:21:00,28.9,28.2,30.24,SW,225,0.0,0.0,97,0.00,,,0.00,WUHU21623XXSP,2013-01-18 08:21:00,
2013-01-18 00:26:00,28.8,28.0,30.23,SW,225,0.0,0.0,97,0.00,,,0.00,WUHU21623XXSP,2013-01-18 08:26:00,
2013-01-18 00:31:00,28.8,28.0,30.23,SW,225,0.0,0.0,97,0.00,,,0.00,WUHU21623XXSP,2013-01-18 08:31:00,
2013-01-18 00:36:00,28.6,28.0,30.23,SW,225,0.0,0.0,97,0.00,,,0.00,WUHU21623XXSP,2013-01-18 08:36:00,
2013-01-18 00:41:00,28.6,27.8,30.23,SW,225,0.0,0.0,97,0.00,,,0.00,WUHU21623XXSP,2013-01-18 08:41:00,
2013-01-18 00:46:00,28.6,27.8,30.23,SW,225,0.0,0.0,97,0.00,,,0.00,WUHU21623XXSP,2013-01-18 08:46:00,
2013-01-18 00:51:00,28.6,27.8,30.23,SW,225,0.0,0.0,97,0.00,,,0.00,WUHU21623XXSP,2013-01-18 08:51:00,
2013-01-18 00:56:00,28.4,27.6,30.23,SW,225,0.0,0.0,97,0.00,,,0.00,WUHU21623XXSP,2013-01-18 08:56:00,
2013-01-18 01:01:00,28.2,27.5,30.23,SW,225,0.0,0.0,97,0.00,,,0.00,WUHU21623XXSP,2013-01-18 09:01:00,
2013-01-18 01:06:00,28.2,27.5,30.23,SW,225,0.0,0.0,97,0.00,,,0.00,WUHU21623XXSP,2013-01-18 09:06:00,
2013-01-18 01:11:00,28.2,27.5,30.23,SW,225,0.0,0.0,97,0.00,,,0.00,WUHU21623XXSP,2013-01-18 09:11:00,
2013-01-18 01:17:00,28.2,27.5,30.22,SW,225,0.0,0.0,97,0.00,,,0.00,WUHU21623XXSP,2013-01-18 09:17:00,
2013-01-18 01:22:00,28.2,27.5,30.22,SW,225,0.0,0.0,97,0.00,,,0.00,WUHU21623XXSP,2013-01-18 09:22:00,
2013-01-18 01:27:00,28.2,27.5,30.22,SW,225,0.0,0.0,97,0.00,,,0.00,WUHU21623XXSP,2013-01-18 09:27:00,
2013-01-18 01:32:00,28.2,27.5,30.23,SW,225,0.0,0.0,97,0.00,,,0.00,WUHU21623XXSP,2013-01-18 09:32:00,
2013-01-18 01:37:00,28.2,27.5,30.23,SW,225,0.0,0.0,97,0.00,,,0.00,WUHU21623XXSP,2013-01-18 09:37:00,
2013-01-18 01:42:00,28.2,27.5,30.23,SW,225,0.0,0.0,97,0.00,,,0.00,WUHU21623XXSP,2013-01-18 09:42:00,
2013-01-18 01:47:00,28.2,27.5,30.23,SW,225,0.0,0.0,97,0.00,,,0.00,WUHU21623XXSP,2013-01-18 09:47:00,
2013-01-18 01:52:00,28.2,27.5,30.23,SW,225,0.0,0.0,98,0.00,,,0.00,WUHU21623XXSP,2013-01-18 09:52:00,
2013-01-18 01:57:00,28.0,27.3,30.23,SW,225,0.0,0.0,97,0.00,,,0.00,WUHU21623XXSP,2013-01-18 09:57:00,
2013-01-18 02:02:00,28.0,27.3,30.23,SW,225,0.0,0.0,97,0.00,,,0.00,WUHU21623XXSP,2013-01-18 10:02:00,
2013-01-18 02:07:00,28.0,27.3,30.23,SW,225,0.0,0.0,97,0.00,,,0.00,WUHU21623XXSP,2013-01-18 10:07:00,
2013-01-18 02:12:00,27.7,26.9,30.23,ENE,67,0.0,0.0,97,0.00,,,0.00,WUHU21623XXSP,2013-01-18 10:12:00,
2013-01-18 02:17:00,27.9,26.9,30.23,ENE,67,0.0,0.0,97,0.00,,,0.00,WUHU21623XXSP,2013-01-18 10:17:00,
2013-01-18 02:22:00,27.7,26.9,30.23,East,90,0.0,0.0,97,0.00,,,0.00,WUHU21623XXSP,2013-01-18 10:22:00,
2013-01-18 02:27:00,27.7,26.9,30.24,ENE,67,0.0,0.0,97,0.00,,,0.00,WUHU21623XXSP,2013-01-18 10:27:00,
2013-01-18 02:32:00,27.7,26.9,30.24,ENE,67,0.0,0.0,97,0.00,,,0.00,WUHU21623XXSP,2013-01-18 10:32:00,
2013-01-18 02:37:00,27.7,26.9,30.24,ENE,67,0.0,0.0,97,0.00,,,0.00,WUHU21623XXSP,2013-01-18 10:37:00,
2013-01-18 02:42:00,27.5,26.7,30.24,ENE,67,0.0,0.0,97,0.00,,,0.00,WUHU21623XXSP,2013-01-18 10:42:00,
2013-01-18 02:47:00,27.5,26.7,30.24,ENE,67,0.0,0.0,97,0.00,,,0.00,WUHU21623XXSP,2013-01-18 10:47:00,
2013-01-18 02:52:00,27.5,26.7,30.24,ENE,67,0.0,0.0,97,0.00,,,0.00,WUHU21623XXSP,2013-01-18 10:52:00,
2013-01-18 02:57:00,27.3,26.6,30.23,ENE,67,0.0,0.0,97,0.00,,,0.00,WUHU21623XXSP,2013-01-18 10:57:00,
2013-01-18 03:02:00,27.3,26.6,30.23,ENE,67,0.0,0.0,97,0.00,,,0.00,WUHU21623XXSP,2013-01-18 11:02:00,
2013-01-18 03:07:00,27.3,26.6,30.23,ENE,67,0.0,0.0,97,0.00,,,0.00,WUHU21623XXSP,2013-01-18 11:07:00,
2013-01-18 03:12:00,27.3,26.6,30.23,ENE,67,0.0,0.0,97,0.00,,,0.00,WUHU21623XXSP,2013-01-18 11:12:00,
2013-01-18 03:17:00,27.3,26.6,30.23,ENE,67,0.0,0.0,97,0.00,,,0.00,WUHU21623XXSP,2013-01-18 11:17:00,
2013-01-18 03:22:00,27.3,26.6,30.23,ENE,67,0.0,0.0,97,0.00,,,0.00,WUHU21623XXSP,2013-01-18 11:22:00,
2013-01-18 03:27:00,27.3,26.6,30.22,ENE,67,0.0,0.0,97,0.00,,,0.00,WUHU21623XXSP,2013-01-18 11:27:00,
2013-01-18 03:32:00,27.3,26.6,30.23,ENE,67,0.0,0.0,97,0.00,,,0.00,WUHU21623XXSP,2013-01-18 11:32:00,
2013-01-18 03:37:00,27.1,26.4,30.22,ENE,67,0.0,0.0,97,0.00,,,0.00,WUHU21623XXSP,2013-01-18 11:37:00,
2013-01-18 03:42:00,27.1,26.4,30.22,ENE,67,0.0,0.0,97,0.00,,,0.00,WUHU21623XXSP,2013-01-18 11:42:00,
2013-01-18 03:47:00,27.1,26.4,30.23,ENE,67,0.0,0.0,97,0.00,,,0.00,WUHU21623XXSP,2013-01-18 11:47:00,
2013-01-18 03:52:00,27.0,26.4,30.22,SSW,202,0.0,0.0,97,0.00,,,0.00,WUHU21623XXSP,2013-01-18 11:52:00,
2013-01-18 03:57:00,27.0,26.2,30.22,WSW,247,0.0,0.0,97,0.00,,,0.00,WUHU21623XXSP,2013-01-18 11:57:00,
2013-01-18 04:02:00,27.0,26.2,30.21,WSW,247,0.0,0.0,97,0.00,,,0.00,WUHU21623XXSP,2013-01-18 12:02:00,
2013-01-18 04:07:00,27.0,26.2,30.21,WSW,247,0.0,0.0,97,0.00,,,0.00,WUHU21623XXSP,2013-01-18 12:07:00,
2013-01-18 04:12:00,27.0,26.2,30.21,WSW,247,0.0,0.0,97,0.00,,,0.00,WUHU21623XXSP,2013-01-18 12:12:00,
2013-01-18 04:17:00,26.8,26.2,30.21,WSW,247,0.0,0.0,97,0.00,,,0.00,WUHU21623XXSP,2013-01-18 12:17:00,
2013-01-18 04:22:00,26.8,26.0,30.21,SW,225,0.0,0.0,97,0.00,,,0.00,WUHU21623XXSP,2013-01-18 12:22:00,
2013-01-18 04:27:00,26.8,26.0,30.21,East,90,0.0,0.0,97,0.00,,,0.00,WUHU21623XXSP,2013-01-18 12:27:00,
2013-01-18 04:32:00,26.8,26.0,30.21,East,90,0.0,0.0,97,0.00,,,0.00,WUHU21623XXSP,2013-01-18 12:32:00,
2013-01-18 04:37:00,26.6,25.8,30.21,ESE,112,0.0,0.0,97,0.00,,,0.00,WUHU21623XXSP,2013-01-18 12:37:00,
2013-01-18 04:42:00,26.6,25.8,30.21,ESE,112,0.0,0.0,97,0.00,,,0.00,WUHU21623XXSP,2013-01-18 12:42:00,
2013-01-18 04:47:00,26.6,25.8,30.20,ESE,112,0.0,0.0,97,0.00,,,0.00,WUHU21623XXSP,2013-01-18 12:47:00,
2013-01-18 04:52:00,26.4,25.7,30.20,ESE,112,0.0,0.0,97,0.00,,,0.00,WUHU21623XXSP,2013-01-18 12:52:00,
2013-01-18 04:57:00,26.4,25.7,30.20,ESE,112,0.0,0.0,97,0.00,,,0.00,WUHU21623XXSP,2013-01-18 12:57:00,
2013-01-18 05:02:00,26.4,25.7,30.21,ESE,112,0.0,0.0,97,0.00,,,0.00,WUHU21623XXSP,2013-01-18 13:02:00,
2013-01-18 05:07:00,26.4,25.7,30.21,ESE,112,0.0,0.0,97,0.00,,,0.00,WUHU21623XXSP,2013-01-18 13:07:00,
2013-01-18 05:13:00,26.4,25.7,30.21,ESE,112,0.0,0.0,97,0.00,,,0.00,WUHU21623XXSP,2013-01-18 13:13:00,
2013-01-18 05:18:00,26.4,25.7,30.21,ESE,112,0.0,0.0,97,0.00,,,0.00,WUHU21623XXSP,2013-01-18 13:18:00,
2013-01-18 05:23:00,26.4,25.7,30.21,ESE,112,0.0,0.0,97,0.00,,,0.00,WUHU21623XXSP,2013-01-18 13:23:00,
2013-01-18 05:28:00,26.4,25.7,30.21,ESE,112,0.0,0.0,97,0.00,,,0.00,WUHU21623XXSP,2013-01-18 13:28:00,
2013-01-18 05:33:00,26.4,25.7,30.21,ESE,112,0.0,0.0,97,0.00,,,0.00,WUHU21623XXSP,2013-01-18 13:33:00,
2013-01-18 05:38:00,26.4,25.7,30.21,ESE,112,0.0,0.0,97,0.00,,,0.00,WUHU21623XXSP,2013-01-18 13:38:00,
2013-01-18 05:43:00,26.4,25.7,30.21,ESE,112,0.0,0.0,97,0.00,,,0.00,WUHU21623XXSP,2013-01-18 13:43:00,
2013-01-18 05:48:00,26.4,25.7,30.21,ESE,112,0.0,0.0,97,0.00,,,0.00,WUHU21623XXSP,2013-01-18 13:48:00,
2013-01-18 05:53:00,26.4,25.7,30.21,ESE,112,0.0,0.0,97,0.00,,,0.00,WUHU21623XXSP,2013-01-18 13:53:00,
2013-01-18 05:58:00,26.2,25.5,30.21,ESE,112,0.0,0.0,97,0.00,,,0.00,WUHU21623XXSP,2013-01-18 13:58:00,
2013-01-18 06:03:00,26.2,25.5,30.21,ESE,112,0.0,0.0,97,0.00,,,0.00,WUHU21623XXSP,2013-01-18 14:03:00,
2013-01-18 06:08:00,26.1,25.3,30.21,ESE,112,0.0,0.0,97,0.00,,,0.00,WUHU21623XXSP,2013-01-18 14:08:00,
2013-01-18 06:13:00,26.1,25.3,30.21,ESE,112,0.0,0.0,97,0.00,,,0.00,WUHU21623XXSP,2013-01-18 14:13:00,
2013-01-18 06:18:00,25.9,25.1,30.21,ESE,112,0.0,0.0,97,0.00,,,0.00,WUHU21623XXSP,2013-01-18 14:18:00,
2013-01-18 06:23:00,26.1,25.3,30.21,ESE,112,0.0,0.0,97,0.00,,,0.00,WUHU21623XXSP,2013-01-18 14:23:00,
2013-01-18 06:28:00,25.9,25.1,30.21,SSW,202,0.0,0.0,97,0.00,,,0.00,WUHU21623XXSP,2013-01-18 14:28:00,
2013-01-18 06:33:00,25.9,25.1,30.20,SSE,157,0.0,0.0,97,0.00,,,0.00,WUHU21623XXSP,2013-01-18 14:33:00,
2013-01-18 06:38:00,25.9,25.1,30.20,SSE,157,0.0,0.0,97,0.00,,,0.00,WUHU21623XXSP,2013-01-18 14:38:00,
2013-01-18 06:43:00,26.1,25.3,30.20,SSE,157,0.0,0.0,97,0.00,,,0.00,WUHU21623XXSP,2013-01-18 14:43:00,
2013-01-18 06:48:00,26.1,25.3,30.20,SSE,157,0.0,0.0,97,0.00,,,0.00,WUHU21623XXSP,2013-01-18 14:48:00,
2013-01-18 06:53:00,26.1,25.3,30.20,SSE,157,0.0,0.0,97,0.00,,,0.00,WUHU21623XXSP,2013-01-18 14:53:00,
2013-01-18 06:58:00,26.2,25.5,30.20,SSE,157,0.0,0.0,97,0.00,,,0.00,WUHU21623XXSP,2013-01-18 14:58:00,
2013-01-18 07:03:00,26.2,25.5,30.20,SSE,157,0.0,0.0,97,0.00,,,0.00,WUHU21623XXSP,2013-01-18 15:03:00,
2013-01-18 07:08:00,26.2,25.5,30.20,SSE,157,0.0,0.0,97,0.00,,,0.00,WUHU21623XXSP,2013-01-18 15:08:00,
2013-01-18 07:13:00,26.2,25.5,30.20,SSE,157,0.0,0.0,97,0.00,,,0.00,WUHU21623XXSP,2013-01-18 15:13:00,
2013-01-18 07:18:00,25.9,25.1,30.20,SSE,157,0.0,0.0,97,0.00,,,0.00,WUHU21623XXSP,2013-01-18 15:18:00,
2013-01-18 07:23:00,25.9,25.1,30.20,SSE,157,0.0,0.0,97,0.00,,,0.00,WUHU21623XXSP,2013-01-18 15:23:00,
2013-01-18 07:28:00,25.7,24.9,30.20,SSE,157,0.0,0.0,97,0.00,,,0.00,WUHU21623XXSP,2013-01-18 15:28:00,
2013-01-18 07:33:00,25.7,24.9,30.21,SSE,157,0.0,0.0,97,0.00,,,0.00,WUHU21623XXSP,2013-01-18 15:33:00,
2013-01-18 07:38:00,25.5,24.8,30.20,SSE,157,0.0,0.0,97,0.00,,,0.00,WUHU21623XXSP,2013-01-18 15:38:00,
2013-01-18 07:43:00,25.5,24.8,30.20,SSW,202,0.0,0.0,97,0.00,,,0.00,WUHU21623XXSP,2013-01-18 15:43:00,
2013-01-18 07:48:00,25.5,24.8,30.21,SSW,202,0.0,0.0,97,0.00,,,0.00,WUHU21623XXSP,2013-01-18 15:48:00,
2013-01-18 07:53:00,25.5,24.8,30.21,SSW,202,0.0,0.0,97,0.00,,,0.00,WUHU21623XXSP,2013-01-18 15:53:00,
2013-01-18 07:58:00,25.3,24.6,30.21,SSW,202,0.0,0.0,97,0.00,,,0.00,WUHU21623XXSP,2013-01-18 15:58:00,
2013-01-18 08:03:00,25.3,24.6,30.21,SSW,202,0.0,0.0,97,0.00,,,0.00,WUHU21623XXSP,2013-01-18 16:03:00,
2013-01-18 08:08:00,25.3,24.6,30.21,SSW,202,0.0,0.0,97,0.00,,,0.00,WUHU21623XXSP,2013-01-18 16:08:00,
2013-01-18 08:13:00,25.5,24.8,30.22,SSW,202,0.0,0.0,97,0.00,,,0.00,WUHU21623XXSP,2013-01-18 16:13:00,
2013-01-18 08:18:00,25.7,25.1,30.22,SSW,202,0.0,0.0,97,0.00,,,0.00,WUHU21623XXSP,2013-01-18 16:18:00,
2013-01-18 08:23:00,25.5,24.8,30.22,SSW,202,0.0,0.0,97,0.00,,,0.00,WUHU21623XXSP,2013-01-18 16:23:00,
2013-01-18 08:28:00,25.3,24.6,30.23,SSW,202,0.0,0.0,97,0.00,,,0.00,WUHU21623XXSP,2013-01-18 16:28:00,
2013-01-18 08:33:00,25.3,24.6,30.23,SSW,202,0.0,0.0,97,0.00,,,0.00,WUHU21623XXSP,2013-01-18 16:33:00,
2013-01-18 08:38:00,25.2,24.4,30.23,SSW,202,0.0,0.0,97,0.00,,,0.00,WUHU21623XXSP,2013-01-18 16:38:00,
2013-01-18 08:43:00,25.2,24.4,30.23,SSW,202,0.0,0.0,97,0.00,,,0.00,WUHU21623XXSP,2013-01-18 16:43:00,
2013-01-18 08:48:00,25.3,24.6,30.24,SSW,202,0.0,0.0,97,0.00,,,0.00,WUHU21623XXSP,2013-01-18 16:48:00,
2013-01-18 08:53:00,25.3,24.6,30.24,SSW,202,0.0,0.0,97,0.00,,,0.00,WUHU21623XXSP,2013-01-18 16:53:00,
2013-01-18 08:58:00,25.5,24.8,30.25,SSW,202,0.0,0.0,97,0.00,,,0.00,WUHU21623XXSP,2013-01-18 16:58:00,
2013-01-18 09:03:00,25.5,24.8,30.24,SSW,202,0.0,0.0,97,0.00,,,0.00,WUHU21623XXSP,2013-01-18 17:03:00,
2013-01-18 09:08:00,25.5,24.8,30.24,SSW,202,0.0,0.0,97,0.00,,,0.00,WUHU21623XXSP,2013-01-18 17:08:00,
2013-01-18 09:13:00,25.7,24.9,30.24,SSW,202,0.0,0.0,97,0.00,,,0.00,WUHU21623XXSP,2013-01-18 17:13:00,
2013-01-18 09:18:00,25.9,25.1,30.25,SSW,202,0.0,0.0,97,0.00,,,0.00,WUHU21623XXSP,2013-01-18 17:18:00,
2013-01-18 09:23:00,25.9,25.1,30.24,SSW,202,0.0,0.0,97,0.00,,,0.00,WUHU21623XXSP,2013-01-18 17:23:00,
2013-01-18 09:28:00,26.2,25.5,30.24,SSW,202,0.0,0.0,97,0.00,,,0.00,WUHU21623XXSP,2013-01-18 17:28:00,
2013-01-18 09:33:00,26.4,25.7,30.24,SSW,202,0.0,0.0,97,0.00,,,0.00,WUHU21623XXSP,2013-01-18 17:33:00,
2013-01-18 09:38:00,26.4,25.7,30.24,SSW,202,0.0,0.0,97,0.00,,,0.00,WUHU21623XXSP,2013-01-18 17:38:00,
2013-01-18 09:43:00,26.4,25.7,30.24,SSW,202,0.0,0.0,97,0.00,,,0.00,WUHU21623XXSP,2013-01-18 17:43:00,
2013-01-18 09:48:00,26.4,25.7,30.24,SSW,202,0.0,0.0,97,0.00,,,0.00,WUHU21623XXSP,2013-01-18 17:48:00,
2013-01-18 09:53:00,26.6,25.8,30.25,SSW,202,0.0,0.0,97,0.00,,,0.00,WUHU21623XXSP,2013-01-18 17:53:00,
2013-01-18 09:58:00,26.8,26.0,30.25,SSW,202,0.0,0.0,97,0.00,,,0.00,WUHU21623XXSP,2013-01-18 17:58:00,
2013-01-18 10:03:00,27.0,26.2,30.25,SSW,202,0.0,0.0,97,0.00,,,0.00,WUHU21623XXSP,2013-01-18 18:03:00,
2013-01-18 10:08:00,27.0,26.2,30.25,SSW,202,0.0,0.0,97,0.00,,,0.00,WUHU21623XXSP,2013-01-18 18:08:00,
2013-01-18 10:13:00,27.1,26.4,30.24,SSW,202,0.0,0.0,97,0.00,,,0.00,WUHU21623XXSP,2013-01-18 18:13:00,
2013-01-18 10:18:00,27.3,26.6,30.24,SSW,202,0.0,0.0,97,0.00,,,0.00,WUHU21623XXSP,2013-01-18 18:18:00,
2013-01-18 10:23:00,27.5,26.7,30.25,SSW,202,0.0,0.0,97,0.00,,,0.00,WUHU21623XXSP,2013-01-18 18:23:00,
2013-01-18 10:28:00,27.7,26.9,30.24,SSW,202,0.0,0.0,97,0.00,,,0.00,WUHU21623XXSP,2013-01-18 18:28:00,
2013-01-18 10:33:00,28.0,27.3,30.25,SSW,202,0.0,0.0,97,0.00,,,0.00,WUHU21623XXSP,2013-01-18 18:33:00,
2013-01-18 10:38:00,28.0,27.3,30.25,SSW,202,0.0,0.0,97,0.00,,,0.00,WUHU21623XXSP,2013-01-18 18:38:00,
2013-01-18 10:43:00,28.2,27.5,30.24,SSW,202,0.0,0.0,97,0.00,,,0.00,WUHU21623XXSP,2013-01-18 18:43:00,
2013-01-18 10:48:00,28.4,27.6,30.25,SSW,202,0.0,0.0,97,0.00,,,0.00,WUHU21623XXSP,2013-01-18 18:48:00,
2013-01-18 10:53:00,28.6,27.8,30.25,SSW,202,0.0,0.0,97,0.00,,,0.00,WUHU21623XXSP,2013-01-18 18:53:00,
2013-01-18 10:58:00,28.8,28.0,30.25,SSW,202,0.0,0.0,97,0.00,,,0.00,WUHU21623XXSP,2013-01-18 18:58:00,
2013-01-18 11:03:00,28.8,28.0,30.25,SSW,202,0.0,0.0,97,0.00,,,0.00,WUHU21623XXSP,2013-01-18 19:03:00,
2013-01-18 11:08:00,28.9,28.2,30.24,SSW,202,0.0,0.0,97,0.00,,,0.00,WUHU21623XXSP,2013-01-18 19:08:00,
2013-01-18 11:13:00,29.1,28.4,30.25,SSW,202,0.0,0.0,97,0.00,,,0.00,WUHU21623XXSP,2013-01-18 19:13:00,
2013-01-18 11:18:00,29.3,28.5,30.24,SSW,202,0.0,0.0,97,0.00,,,0.00,WUHU21623XXSP,2013-01-18 19:18:00,
2013-01-18 11:23:00,29.5,28.7,30.25,SSW,202,0.0,0.0,97,0.00,,,0.00,WUHU21623XXSP,2013-01-18 19:23:00,
2013-01-18 11:28:00,30.0,29.5,30.25,SSW,202,0.0,0.0,98,0.00,,,0.00,WUHU21623XXSP,2013-01-18 19:28:00,
2013-01-18 11:33:00,30.0,29.5,30.25,SSW,202,0.0,0.0,98,0.00,,,0.00,WUHU21623XXSP,2013-01-18 19:33:00,
2013-01-18 11:38:00,30.4,29.9,30.25,SSW,202,0.0,0.0,98,0.00,,,0.00,WUHU21623XXSP,2013-01-18 19:38:00,
2013-01-18 11:43:00,30.4,29.9,30.24,SSW,202,0.0,0.0,98,0.00,,,0.00,WUHU21623XXSP,2013-01-18 19:43:00,
2013-01-18 11:48:00,30.4,29.9,30.25,SSW,202,0.0,0.0,98,0.00,,,0.00,WUHU21623XXSP,2013-01-18 19:48:00,
2013-01-18 11:53:00,30.6,30.1,30.25,SSW,202,0.0,0.0,98,0.00,,,0.00,WUHU21623XXSP,2013-01-18 19:53:00,
2013-01-18 11:58:00,30.7,30.2,30.25,SSW,202,0.0,0.0,98,0.00,,,0.00,WUHU21623XXSP,2013-01-18 19:58:00,
2013-01-18 12:03:00,31.1,30.6,30.25,SSW,202,0.0,0.0,98,0.00,,,0.00,WUHU21623XXSP,2013-01-18 20:03:00,
2013-01-18 12:08:00,31.3,30.8,30.25,SSW,202,0.0,0.0,98,0.00,,,0.00,WUHU21623XXSP,2013-01-18 20:08:00,
2013-01-18 12:13:00,31.6,31.1,30.25,SSW,202,0.0,0.0,98,0.00,,,0.00,WUHU21623XXSP,2013-01-18 20:13:00,
2013-01-18 12:18:00,31.6,31.1,30.24,SSW,202,0.0,0.0,98,0.00,,,0.00,WUHU21623XXSP,2013-01-18 20:18:00,
2013-01-18 12:23:00,31.8,31.3,30.24,SSW,202,0.0,0.0,98,0.00,,,0.00,WUHU21623XXSP,2013-01-18 20:23:00,
2013-01-18 12:28:00,32.2,31.7,30.24,SSW,202,0.0,0.0,98,0.00,,,0.00,WUHU21623XXSP,2013-01-18 20:28:00,
2013-01-18 12:33:00,32.4,31.8,30.24,SSW,202,0.0,0.0,98,0.00,,,0.00,WUHU21623XXSP,2013-01-18 20:33:00,
2013-01-18 12:38:00,32.7,32.2,30.24,SSW,202,0.0,0.0,98,0.00,,,0.00,WUHU21623XXSP,2013-01-18 20:38:00,
2013-01-18 12:43:00,32.9,32.4,30.24,SSW,202,0.0,0.0,98,0.00,,,0.00,WUHU21623XXSP,2013-01-18 20:43:00,
2013-01-18 12:48:00,33.3,32.7,30.25,SSW,202,0.0,0.0,98,0.00,,,0.00,WUHU21623XXSP,2013-01-18 20:48:00,
2013-01-18 12:53:00,33.4,32.9,30.24,SSW,202,0.0,0.0,98,0.00,,,0.00,WUHU21623XXSP,2013-01-18 20:53:00,
2013-01-18 12:58:00,33.6,32.9,30.25,SSW,202,0.0,0.0,98,0.00,,,0.00,WUHU21623XXSP,2013-01-18 20:58:00,
2013-01-18 13:03:00,33.6,33.1,30.25,SSW,202,0.0,0.0,98,0.00,,,0.00,WUHU21623XXSP,2013-01-18 21:03:00,
2013-01-18 13:08:00,33.6,33.1,30.25,SSW,202,0.0,0.0,98,0.00,,,0.00,WUHU21623XXSP,2013-01-18 21:08:00,
2013-01-18 13:13:00,33.6,33.1,30.25,SSW,202,0.0,0.0,98,0.00,,,0.00,WUHU21623XXSP,2013-01-18 21:13:00,
2013-01-18 13:18:00,33.6,33.1,30.25,SSW,202,0.0,0.0,98,0.00,,,0.00,WUHU21623XXSP,2013-01-18 21:18:00,
2013-01-18 13:23:00,33.6,33.1,30.25,SSW,202,0.0,0.0,98,0.00,,,0.00,WUHU21623XXSP,2013-01-18 21:23:00,
2013-01-18 13:28:00,33.6,33.1,30.25,SSW,202,0.0,0.0,98,0.00,,,0.00,WUHU21623XXSP,2013-01-18 21:28:00,
2013-01-18 13:33:00,33.6,33.1,30.24,WSW,247,0.0,0.0,98,0.00,,,0.00,WUHU21623XXSP,2013-01-18 21:33:00,
2013-01-18 13:38:00,33.6,33.1,30.24,WSW,247,0.0,0.0,98,0.00,,,0.00,WUHU21623XXSP,2013-01-18 21:38:00,
2013-01-18 13:43:00,33.4,32.9,30.24,WSW,247,0.0,0.0,98,0.00,,,0.00,WUHU21623XXSP,2013-01-18 21:43:00,
2013-01-18 13:48:00,33.6,32.9,30.24,WSW,247,0.0,0.0,98,0.00,,,0.00,WUHU21623XXSP,2013-01-18 21:48:00,
2013-01-18 13:53:00,33.6,33.1,30.24,WSW,247,0.0,0.0,98,0.00,,,0.00,WUHU21623XXSP,2013-01-18 21:53:00,
2013-01-18 13:58:00,33.4,32.9,30.24,WSW,247,0.0,0.0,98,0.00,,,0.00,WUHU21623XXSP,2013-01-18 21:58:00,
2013-01-18 14:03:00,33.4,32.9,30.24,SW,225,0.0,0.0,97,0.00,,,0.00,WUHU21623XXSP,2013-01-18 22:03:00,
2013-01-18 14:08:00,33.4,32.6,30.24,WSW,247,0.0,0.0,97,0.00,,,0.00,WUHU21623XXSP,2013-01-18 22:08:00,
2013-01-18 14:13:00,33.4,32.6,30.24,SSE,157,0.0,0.0,98,0.00,,,0.00,WUHU21623XXSP,2013-01-18 22:13:00,
2013-01-18 14:18:00,33.3,32.5,30.24,South,180,0.0,0.0,97,0.00,,,0.00,WUHU21623XXSP,2013-01-18 22:18:00,
2013-01-18 14:23:00,33.3,32.5,30.24,SSW,202,0.0,0.0,97,0.00,,,0.00,WUHU21623XXSP,2013-01-18 22:23:00,
2013-01-18 14:28:00,33.1,32.3,30.24,SSW,202,0.0,0.0,97,0.00,,,0.00,WUHU21623XXSP,2013-01-18 22:28:00,
2013-01-18 14:33:00,33.1,32.3,30.24,South,180,0.0,0.0,97,0.00,,,0.00,WUHU21623XXSP,2013-01-18 22:33:00,
2013-01-18 14:38:00,33.1,32.3,30.24,South,180,0.0,0.0,97,0.00,,,0.00,WUHU21623XXSP,2013-01-18 22:38:00,
2013-01-18 14:43:00,33.1,32.5,30.24,South,180,0.0,0.0,98,0.00,,,0.00,WUHU21623XXSP,2013-01-18 22:43:00,
2013-01-18 14:48:00,33.1,32.3,30.24,SW,225,0.0,0.0,97,0.00,,,0.00,WUHU21623XXSP,2013-01-18 22:48:00,
2013-01-18 14:53:00,33.1,32.3,30.24,SW,225,0.0,0.0,97,0.00,,,0.00,WUHU21623XXSP,2013-01-18 22:53:00,
2013-01-18 14:58:00,32.9,32.1,30.24,SW,225,0.0,0.0,97,0.00,,,0.00,WUHU21623XXSP,2013-01-18 22:58:00,
2013-01-18 15:03:00,32.9,32.1,30.24,SW,225,0.0,0.0,97,0.00,,,0.00,WUHU21623XXSP,2013-01-18 23:03:00,
2013-01-18 15:08:00,32.9,32.1,30.24,SW,225,0.0,0.0,97,0.00,,,0.00,WUHU21623XXSP,2013-01-18 23:08:00,
2013-01-18 15:13:00,32.7,32.1,30.24,SW,225,0.0,0.0,97,0.00,,,0.00,WUHU21623XXSP,2013-01-18 23:13:00,
2013-01-18 15:18:00,32.9,31.9,30.24,SW,225,0.0,0.0,97,0.00,,,0.00,WUHU21623XXSP,2013-01-18 23:18:00,
2013-01-18 15:23:00,32.9,32.1,30.24,SW,225,0.0,0.0,97,0.00,,,0.00,WUHU21623XXSP,2013-01-18 23:23:00,
2013-01-18 15:28:00,32.7,31.9,30.24,SW,225,0.0,0.0,97,0.00,,,0.00,WUHU21623XXSP,2013-01-18 23:28:00,
2013-01-18 15:33:00,32.7,31.9,30.24,SW,225,0.0,0.0,97,0.00,,,0.00,WUHU21623XXSP,2013-01-18 23:33:00,
2013-01-18 15:38:00,32.5,31.8,30.24,SW,225,0.0,0.0,97,0.00,,,0.00,WUHU21623XXSP,2013-01-18 23:38:00,
2013-01-18 15:43:00,32.4,31.6,30.24,SW,225,0.0,0.0,97,0.00,,,0.00,WUHU21623XXSP,2013-01-18 23:43:00,
2013-01-18 15:48:00,32.4,31.6,30.25,SW,225,0.0,0.0,97,0.00,,,0.00,WUHU21623XXSP,2013-01-18 23:48:00,
2013-01-18 15:53:00,32.2,31.6,30.24,SW,225,0.0,0.0,97,0.00,,,0.00,WUHU21623XXSP,2013-01-18 23:53:00,
2013-01-18 15:58:00,32.2,31.4,30.24,SW,225,0.0,0.0,97,0.00,,,0.00,WUHU21623XXSP,2013-01-18 23:58:00,
2013-01-18 16:03:00,32.2,31.4,30.24,SW,225,0.0,0.0,97,0.00,,,0.00,WUHU21623XXSP,2013-01-19 00:03:00,
2013-01-18 16:08:00,32.0,31.2,30.24,SW,225,0.0,0.0,97,0.00,,,0.00,WUHU21623XXSP,2013-01-19 00:08:00,
2013-01-18 16:13:00,31.8,31.1,30.24,SW,225,0.0,0.0,97,0.00,,,0.00,WUHU21623XXSP,2013-01-19 00:13:00,
2013-01-18 16:18:00,31.8,31.1,30.25,SW,225,0.0,0.0,97,0.00,,,0.00,WUHU21623XXSP,2013-01-19 00:18:00,
2013-01-18 16:23:00,31.8,31.1,30.25,SW,225,0.0,0.0,97,0.00,,,0.00,WUHU21623XXSP,2013-01-19 00:23:00,
2013-01-18 16:28:00,31.8,31.1,30.25,SW,225,0.0,0.0,97,0.00,,,0.00,WUHU21623XXSP,2013-01-19 00:28:00,
2013-01-18 16:33:00,31.6,30.9,30.24,SW,225,0.0,0.0,97,0.00,,,0.00,WUHU21623XXSP,2013-01-19 00:33:00,
2013-01-18 16:38:00,31.6,30.9,30.24,SW,225,0.0,0.0,97,0.00,,,0.00,WUHU21623XXSP,2013-01-19 00:38:00,
2013-01-18 16:43:00,31.6,30.9,30.24,SW,225,0.0,0.0,97,0.00,,,0.00,WUHU21623XXSP,2013-01-19 00:43:00,
2013-01-18 16:49:00,31.6,30.9,30.24,SW,225,0.0,0.0,97,0.00,,,0.00,WUHU21623XXSP,2013-01-19 00:49:00,
2013-01-18 16:54:00,31.5,30.9,30.25,SW,225,0.0,0.0,97,0.00,,,0.00,WUHU21623XXSP,2013-01-19 00:54:00,
2013-01-18 16:59:00,31.6,30.9,30.24,SW,225,0.0,0.0,97,0.00,,,0.00,WUHU21623XXSP,2013-01-19 00:59:00,
2013-01-18 17:04:00,31.6,30.9,30.24,SW,225,0.0,0.0,97,0.00,,,0.00,WUHU21623XXSP,2013-01-19 01:04:00,
2013-01-18 17:09:00,31.3,30.7,30.25,SW,225,0.0,0.0,97,0.00,,,0.00,WUHU21623XXSP,2013-01-19 01:09:00,
2013-01-18 17:14:00,31.3,30.5,30.25,SW,225,0.0,0.0,97,0.00,,,0.00,WUHU21623XXSP,2013-01-19 01:14:00,
2013-01-18 17:19:00,31.3,30.5,30.25,SW,225,0.0,0.0,97,0.00,,,0.00,WUHU21623XXSP,2013-01-19 01:19:00,
2013-01-18 17:24:00,31.3,30.5,30.25,SW,225,0.0,0.0,97,0.00,,,0.00,WUHU21623XXSP,2013-01-19 01:24:00,
2013-01-18 17:29:00,31.3,30.5,30.25,SW,225,0.0,0.0,97,0.00,,,0.00,WUHU21623XXSP,2013-01-19 01:29:00,
2013-01-18 17:34:00,31.3,30.5,30.25,SW,225,0.0,0.0,97,0.00,,,0.00,WUHU21623XXSP,2013-01-19 01:34:00,
2013-01-18 17:39:00,31.3,30.5,30.25,SW,225,0.0,0.0,97,0.00,,,0.00,WUHU21623XXSP,2013-01-19 01:39:00,
2013-01-18 17:44:00,31.3,30.5,30.25,SW,225,0.0,0.0,97,0.00,,,0.00,WUHU21623XXSP,2013-01-19 01:44:00,
2013-01-18 17:49:00,31.1,30.5,30.25,SW,225,0.0,0.0,97,0.00,,,0.00,WUHU21623XXSP,2013-01-19 01:49:00,
2013-01-18 17:54:00,31.1,30.3,30.26,SW,225,0.0,0.0,97,0.00,,,0.00,WUHU21623XXSP,2013-01-19 01:54:00,
2013-01-18 17:59:00,31.1,30.3,30.25,SW,225,0.0,0.0,97,0.00,,,0.00,WUHU21623XXSP,2013-01-19 01:59:00,
2013-01-18 18:04:00,31.1,30.3,30.26,SW,225,0.0,0.0,97,0.00,,,0.00,WUHU21623XXSP,2013-01-19 02:04:00,
2013-01-18 18:09:00,30.9,30.3,30.26,SW,225,0.0,0.0,97,0.00,,,0.00,WUHU21623XXSP,2013-01-19 02:09:00,
2013-01-18 18:14:00,31.1,30.2,30.26,SW,225,0.0,0.0,97,0.00,,,0.00,WUHU21623XXSP,2013-01-19 02:14:00,
2013-01-18 18:19:00,30.9,30.2,30.25,SW,225,0.0,0.0,97,0.00,,,0.00,WUHU21623XXSP,2013-01-19 02:19:00,
2013-01-18 18:24:00,30.9,30.2,30.25,SW,225,0.0,0.0,97,0.00,,,0.00,WUHU21623XXSP,2013-01-19 02:24:00,
2013-01-18 18:29:00,31.1,30.3,30.25,SW,225,0.0,0.0,97,0.00,,,0.00,WUHU21623XXSP,2013-01-19 02:29:00,
2013-01-18 18:34:00,30.9,30.2,30.25,SW,225,0.0,0.0,97,0.00,,,0.00,WUHU21623XXSP,2013-01-19 02:34:00,
2013-01-18 18:39:00,30.9,30.2,30.25,SW,225,0.0,0.0,97,0.00,,,0.00,WUHU21623XXSP,2013-01-19 02:39:00,
2013-01-18 18:44:00,30.7,30.0,30.25,SW,225,0.0,0.0,97,0.00,,,0.00,WUHU21623XXSP,2013-01-19 02:44:00,
2013-01-18 18:49:00,30.7,30.0,30.25,SW,225,0.0,0.0,97,0.00,,,0.00,WUHU21623XXSP,2013-01-19 02:49:00,
2013-01-18 18:54:00,30.7,30.0,30.25,SW,225,0.0,0.0,97,0.00,,,0.00,WUHU21623XXSP,2013-01-19 02:54:00,
2013-01-18 18:59:00,30.7,30.0,30.25,SW,225,0.0,0.0,97,0.00,,,0.00,WUHU21623XXSP,2013-01-19 02:59:00,
2013-01-18 19:04:00,30.7,30.2,30.25,SW,225,0.0,0.0,98,0.00,,,0.00,WUHU21623XXSP,2013-01-19 03:04:00,
2013-01-18 19:09:00,30.7,30.0,30.25,SW,225,0.0,0.0,97,0.00,,,0.00,WUHU21623XXSP,2013-01-19 03:09:00,
2013-01-18 19:14:00,30.7,30.0,30.25,SW,225,0.0,0.0,97,0.00,,,0.00,WUHU21623XXSP,2013-01-19 03:14:00,
2013-01-18 19:19:00,30.7,30.0,30.25,SW,225,0.0,0.0,97,0.00,,,0.00,WUHU21623XXSP,2013-01-19 03:19:00,
2013-01-18 19:24:00,30.7,30.2,30.25,SW,225,0.0,0.0,98,0.00,,,0.00,WUHU21623XXSP,2013-01-19 03:24:00,
2013-01-18 19:29:00,30.7,30.2,30.25,SW,225,0.0,0.0,98,0.00,,,0.00,WUHU21623XXSP,2013-01-19 03:29:00,
2013-01-18 19:34:00,30.7,30.2,30.26,SW,225,0.0,0.0,98,0.00,,,0.00,WUHU21623XXSP,2013-01-19 03:34:00,
2013-01-18 19:39:00,30.7,30.2,30.26,SW,225,0.0,0.0,98,0.00,,,0.00,WUHU21623XXSP,2013-01-19 03:39:00,
2013-01-18 19:44:00,30.7,30.2,30.26,SW,225,0.0,0.0,98,0.00,,,0.00,WUHU21623XXSP,2013-01-19 03:44:00,
2013-01-18 19:49:00,30.7,30.2,30.26,SW,225,0.0,0.0,98,0.00,,,0.00,WUHU21623XXSP,2013-01-19 03:49:00,
2013-01-18 19:54:00,30.6,30.1,30.26,SW,225,0.0,0.0,98,0.00,,,0.00,WUHU21623XXSP,2013-01-19 03:54:00,
2013-01-18 19:59:00,30.6,30.1,30.26,SW,225,0.0,0.0,98,0.00,,,0.00,WUHU21623XXSP,2013-01-19 03:59:00,
2013-01-18 20:04:00,30.6,30.1,30.26,SW,225,0.0,0.0,98,0.00,,,0.00,WUHU21623XXSP,2013-01-19 04:04:00,
2013-01-18 20:09:00,30.6,30.1,30.26,SW,225,0.0,0.0,98,0.00,,,0.00,WUHU21623XXSP,2013-01-19 04:09:00,
2013-01-18 20:14:00,30.4,29.9,30.26,SW,225,0.0,0.0,98,0.00,,,0.00,WUHU21623XXSP,2013-01-19 04:14:00,
2013-01-18 20:19:00,30.2,29.9,30.26,SW,225,0.0,0.0,98,0.00,,,0.00,WUHU21623XXSP,2013-01-19 04:19:00,
2013-01-18 20:24:00,30.2,29.7,30.27,SW,225,0.0,0.0,98,0.00,,,0.00,WUHU21623XXSP,2013-01-19 04:24:00,
2013-01-18 20:29:00,30.2,29.7,30.27,SW,225,0.0,0.0,98,0.00,,,0.00,WUHU21623XXSP,2013-01-19 04:29:00,
2013-01-18 20:34:00,30.2,29.7,30.27,SW,225,0.0,0.0,98,0.00,,,0.00,WUHU21623XXSP,2013-01-19 04:34:00,
2013-01-18 20:39:00,30.2,29.7,30.27,SW,225,0.0,0.0,98,0.00,,,0.00,WUHU21623XXSP,2013-01-19 04:39:00,
2013-01-18 20:44:00,30.2,29.7,30.28,SW,225,0.0,0.0,98,0.00,,,0.00,WUHU21623XXSP,2013-01-19 04:44:00,
2013-01-18 20:49:00,30.0,29.5,30.27,SW,225,0.0,0.0,98,0.00,,,0.00,WUHU21623XXSP,2013-01-19 04:49:00,
2013-01-18 20:54:00,30.2,29.7,30.27,SW,225,0.0,0.0,98,0.00,,,0.00,WUHU21623XXSP,2013-01-19 04:54:00,
2013-01-18 20:59:00,30.2,29.7,30.27,SW,225,0.0,0.0,98,0.00,,,0.00,WUHU21623XXSP,2013-01-19 04:59:00,
2013-01-18 21:00:00,30.2,29.7,30.27,SW,225,0.0,0.0,98,0.00,,,0.00,WUHU21623XXSP,2013-01-19 05:00:00,
2013-01-18 21:01:00,30.2,29.7,30.27,SW,225,0.0,0.0,98,0.00,,,0.00,WUHU21623XXSP,2013-01-19 05:01:00,
2013-01-18 21:06:00,30.2,29.7,30.28,SW,225,0.0,0.0,98,0.00,,,0.00,WUHU21623XXSP,2013-01-19 05:06:00,
2013-01-18 21:11:00,30.2,29.7,30.28,SW,225,0.0,0.0,98,0.00,,,0.00,WUHU21623XXSP,2013-01-19 05:11:00,
2013-01-18 21:16:00,30.2,29.7,30.28,SW,225,0.0,0.0,98,0.00,,,0.00,WUHU21623XXSP,2013-01-19 05:16:00,
2013-01-18 21:21:00,30.2,29.7,30.28,SW,225,0.0,0.0,98,0.00,,,0.00,WUHU21623XXSP,2013-01-19 05:21:00,
2013-01-18 21:26:00,30.2,29.7,30.28,SW,225,0.0,0.0,98,0.00,,,0.00,WUHU21623XXSP,2013-01-19 05:26:00,
2013-01-18 21:31:00,30.0,29.5,30.28,SW,225,0.0,0.0,98,0.00,,,0.00,WUHU21623XXSP,2013-01-19 05:31:00,
2013-01-18 21:36:00,30.0,29.5,30.28,SW,225,0.0,0.0,98,0.00,,,0.00,WUHU21623XXSP,2013-01-19 05:36:00,
2013-01-18 21:41:00,30.0,29.5,30.28,SW,225,0.0,0.0,98,0.00,,,0.00,WUHU21623XXSP,2013-01-19 05:41:00,
2013-01-18 21:46:00,30.0,29.5,30.28,SW,225,0.0,0.0,98,0.00,,,0.00,WUHU21623XXSP,2013-01-19 05:46:00,
2013-01-18 21:51:00,30.0,29.5,30.28,SW,225,0.0,0.0,98,0.00,,,0.00,WUHU21623XXSP,2013-01-19 05:51:00,
2013-01-18 21:56:00,30.0,29.5,30.28,SW,225,0.0,0.0,98,0.00,,,0.00,WUHU21623XXSP,2013-01-19 05:56:00,
2013-01-18 22:01:00,30.0,29.5,30.29,SW,225,0.0,0.0,98,0.00,,,0.00,WUHU21623XXSP,2013-01-19 06:01:00,
2013-01-18 22:06:00,30.0,29.5,30.28,SW,225,0.0,0.0,98,0.00,,,0.00,WUHU21623XXSP,2013-01-19 06:06:00,
2013-01-18 22:11:00,30.0,29.5,30.29,SW,225,0.0,0.0,98,0.00,,,0.00,WUHU21623XXSP,2013-01-19 06:11:00,
2013-01-18 22:16:00,30.0,29.5,30.28,SW,225,0.0,0.0,98,0.00,,,0.00,WUHU21623XXSP,2013-01-19 06:16:00,
2013-01-18 22:21:00,30.0,29.5,30.28,SW,225,0.0,0.0,98,0.00,,,0.00,WUHU21623XXSP,2013-01-19 06:21:00,
2013-01-18 22:26:00,30.0,29.5,30.29,SW,225,0.0,0.0,98,0.00,,,0.00,WUHU21623XXSP,2013-01-19 06:26:00,
2013-01-18 22:32:00,30.0,29.5,30.29,SW,225,0.0,0.0,98,0.00,,,0.00,WUHU21623XXSP,2013-01-19 06:32:00,
2013-01-18 22:37:00,30.0,29.5,30.28,SW,225,0.0,0.0,98,0.00,,,0.00,WUHU21623XXSP,2013-01-19 06:37:00,
2013-01-18 22:42:00,30.0,29.5,30.28,SW,225,0.0,0.0,98,0.00,,,0.00,WUHU21623XXSP,2013-01-19 06:42:00,
2013-01-18 22:46:00,30.0,29.5,30.28,SW,225,0.0,0.0,98,0.00,,,0.00,WUHU21623XXSP,2013-01-19 06:46:00,
2013-01-18 22:51:00,30.0,29.5,30.28,SW,225,0.0,0.0,98,0.00,,,0.00,WUHU21623XXSP,2013-01-19 06:51:00,
2013-01-18 22:57:00,30.0,29.5,30.28,SW,225,0.0,0.0,98,0.00,,,0.00,WUHU21623XXSP,2013-01-19 06:57:00,
2013-01-18 23:02:00,30.0,29.5,30.28,SW,225,0.0,0.0,98,0.00,,,0.00,WUHU21623XXSP,2013-01-19 07:02:00,
2013-01-18 23:07:00,30.0,29.5,30.29,SW,225,0.0,0.0,98,0.00,,,0.00,WUHU21623XXSP,2013-01-19 07:07:00,
2013-01-18 23:12:00,30.0,29.5,30.29,SW,225,0.0,0.0,98,0.00,,,0.00,WUHU21623XXSP,2013-01-19 07:12:00,
2013-01-18 23:17:00,30.0,29.5,30.29,SW,225,0.0,0.0,98,0.00,,,0.00,WUHU21623XXSP,2013-01-19 07:17:00,
2013-01-18 23:22:00,30.0,29.5,30.29,SW,225,0.0,0.0,98,0.00,,,0.00,WUHU21623XXSP,2013-01-19 07:22:00,
2013-01-18 23:27:00,29.8,29.3,30.29,SW,225,0.0,0.0,98,0.00,,,0.00,WUHU21623XXSP,2013-01-19 07:27:00,
2013-01-18 23:32:00,29.7,29.2,30.29,SW,225,0.0,0.0,98,0.00,,,0.00,WUHU21623XXSP,2013-01-19 07:32:00,
2013-01-18 23:37:00,29.5,28.7,30.28,SW,225,0.0,0.0,97,0.00,,,0.00,WUHU21623XXSP,2013-01-19 07:37:00,
2013-01-18 23:42:00,29.5,28.7,30.29,SW,225,0.0,0.0,97,0.00,,,0.00,WUHU21623XXSP,2013-01-19 07:42:00,
2013-01-18 23:47:00,29.5,28.7,30.29,SW,225,0.0,0.0,97,0.00,,,0.00,WUHU21623XXSP,2013-01-19 07:47:00,
2013-01-18 23:52:00,29.5,28.7,30.28,SW,225,0.0,0.0,97,0.00,,,0.00,WUHU21623XXSP,2013-01-19 07:52:00,
2013-01-18 23:57:00,29.3,28.5,30.29,SW,225,0.0,0.0,97,0.00,,,0.00,WUHU21623XXSP,2013-01-19 07:57:00,